Location: Burland Observatory
(39.4088°N, 105.4217°W)
Time: 23:18:49
(UTC-07:00)

SR - Pass Details

Date: 09 December 2019
Orbit: 574 x 882 km, 66.7° (Epoch: 24 January)

Event Time Altitude Azimuth Distance (km) Brightness Sun altitude
Rises 08:42:49 0° 182° (S) 3,175 ? 13.4°
Reaches altitude 10° 08:45:17 10° 173° (S) 2,305 ? 13.8°
Maximum altitude 08:50:04 34° 109° (ESE) 1,301 ? 14.4°
Drops below altitude 10° 08:55:11 10° 46° (NE) 2,476 ? 15.1°
Sets 08:57:55 0° 38° (NE) 3,446 ? 15.4°
